CW5469 Weather Reports


time (UTC)temp
C
wind
direction
speed
KPH
gust
KPH
rain 1hr
cm
rain 24hr
cm
rain mn
cm
humidity
%
barometer
mb
20260508064951 5 323 4.8 12.9 0.00 0.13 0.00 62 1021.6
20260508062951 5 323 3.2 11.3 0.00 0.13 0.00 62 1021.5
20260508061952 5 323 3.2 6.4 0.00 0.13 0.00 65 1021.4
20260508060952 5 323 3.2 9.7 0.00 0.13 0.00 64 1021.5
20260508055956 5 323 4.8 12.9 0.00 0.13 0.00 63 1021.3
20260508054952 5 323 6.4 12.9 0.00 0.13 0.13 63 1021.3
20260508051952 5 323 8.0 14.5 0.00 0.13 0.13 66 1021.3
20260508050952 5 328 6.4 17.7 0.00 0.13 0.13 67 1021.3
20260508045953 5 309 6.4 16.1 0.00 0.13 0.13 68 1021.3
20260508044952 4 307 4.8 14.5 0.00 0.13 0.13 75 1021.1
20260508043952 3 339 1.6 6.4 0.00 0.13 0.13 85 1021.0
20260508042952 3 0 0.0 0.0 0.00 0.13 0.13 88 1021.0
20260508041952 3 0 0.0 0.0 0.00 0.13 0.13 89 1021.1
20260508040952 3 0 0.0 0.0 0.00 0.13 0.13 89 1021.2
20260508035951 3 0 0.0 0.0 0.00 0.13 0.13 89 1021.2
20260508034952 3 0 0.0 0.0 0.00 0.13 0.13 89 1021.2
20260508032952 3 0 0.0 0.0 0.00 0.13 0.13 88 1020.9
20260508025952 3 122 1.6 4.8 0.00 0.13 0.13 88 1020.7
20260508024952 3 0 0.0 3.2 0.00 0.13 0.13 88 1020.7
20260508023952 3 0 0.0 6.4 0.00 0.13 0.13 88 1020.7
20260508022952 3 0 0.0 4.8 0.00 0.13 0.13 87 1020.6
20260508021951 3 120 1.6 11.3 0.00 0.13 0.13 87 1020.6
20260508020956 3 323 3.2 9.7 0.05 0.13 0.13 86 1020.6
20260508014952 3 0 0.0 3.2 0.05 0.13 0.13 85 1020.5
20260508013952 3 0 0.0 4.8 0.05 0.13 0.13 85 1020.5
20260508012952 3 314 4.8 16.1 0.05 0.13 0.13 81 1020.7
20260508011952 4 311 11.3 27.4 0.05 0.13 0.13 76 1020.9
20260508005952 7 281 9.7 19.3 0.03 0.08 0.08 59 1020.5
20260508003952 7 276 9.7 17.7 0.03 0.08 0.08 57 1020.3
20260508002954 7 299 12.9 30.6 0.03 0.08 0.08 57 1020.3
20260508001951 8 318 16.1 40.2 0.03 0.08 0.08 53 1020.3
20260508000952 9 316 17.7 40.2 0.03 0.10 0.08 48 1020.1
20260507235952 10 312 9.7 22.5 0.00 0.08 0.05 43 1019.5
20260507234952 10 321 11.3 25.7 0.00 0.08 0.05 42 1019.2
20260507231951 10 315 8.0 22.5 0.00 0.08 0.05 45 1019.4
20260507230952 10 321 11.3 22.5 0.00 0.08 0.05 44 1019.4
20260507225952 10 333 14.5 30.6 0.00 0.08 0.05 44 1019.7
20260507224952 10 317 14.5 35.4 0.00 0.08 0.05 41 1019.7
20260507222952 12 310 12.9 27.4 0.00 0.10 0.05 40 1019.7
20260507221952 11 313 17.7 35.4 0.00 0.10 0.05 39 1019.6
20260507220952 11 312 16.1 29.0 0.00 0.10 0.05 38 1019.8
20260507215952 11 310 16.1 29.0 0.00 0.10 0.05 44 1019.9
20260507214952 10 313 16.1 29.0 0.00 0.10 0.05 40 1020.0
20260507213952 10 313 11.3 33.8 0.00 0.13 0.05 44 1020.2
20260507211952 10 303 12.9 29.0 0.00 0.13 0.05 45 1020.6
20260507210952 10 312 17.7 37.0 0.00 0.13 0.05 42 1020.7
20260507205952 10 305 16.1 29.0 0.00 0.15 0.05 43 1020.8
20260507203952 10 318 14.5 33.8 0.00 0.23 0.05 45 1020.9
20260507202956 9 314 16.1 30.6 0.00 0.25 0.05 45 1021.1
20260507201952 9 310 19.3 38.6 0.00 0.30 0.05 44 1021.3
20260507200951 9 311 14.5 33.8 0.00 0.36 0.05 46 1021.3
20260507195952 9 312 12.9 29.0 0.00 0.38 0.05 47 1021.6
20260507194952 8 312 11.3 29.0 0.00 0.41 0.05 48 1021.6
20260507193952 7 311 14.5 27.4 0.00 0.43 0.05 48 1021.8
20260507192952 8 311 14.5 29.0 0.00 0.46 0.05 50 1021.8
20260507191952 7 310 16.1 37.0 0.00 0.48 0.05 48 1021.9
20260507185953 6 309 16.1 30.6 0.00 0.56 0.05 49 1022.1
20260507180954 6 317 11.3 22.5 0.00 0.81 0.05 52 1022.2
20260507174953 6 321 6.4 17.7 0.00 0.81 0.05 57 1022.5
20260507173953 5 321 6.4 17.7 0.00 0.81 0.05 56 1022.6
20260507172954 5 323 6.4 16.1 0.03 0.81 0.05 58 1022.6
20260507171953 5 344 9.7 24.1 0.03 0.81 0.05 55 1022.6
20260507170956 6 334 8.0 19.3 0.03 0.81 0.05 57 1022.7
20260507165954 5 342 6.4 16.1 0.03 0.81 0.05 57 1022.8
20260507164953 5 335 4.8 17.7 0.03 0.81 0.05 61 1022.9
20260507163954 4 345 4.8 16.1 0.03 0.81 0.05 61 1023.0
20260507162953 3 333 8.0 14.5 0.03 0.79 0.03 62 1023.0
20260507161954 3 330 6.4 14.5 0.03 0.79 0.03 59 1023.0
20260507160953 3 327 4.8 14.5 0.03 0.79 0.03 57 1023.0
20260507155954 3 328 3.2 12.9 0.03 0.79 0.03 57 1023.0
20260507154953 2 335 1.6 6.4 0.03 0.79 0.03 63 1023.2
20260507153954 2 335 1.6 4.8 0.03 0.79 0.03 66 1023.4
20260507152954 1 328 1.6 4.8 0.00 0.76 0.00 65 1023.7
20260507151953 1 328 1.6 4.8 0.00 0.76 0.00 67 1023.8
20260507150953 0 328 1.6 3.2 0.00 0.76 0.00 68 1024.1
20260507145954 0 328 3.2 6.4 0.00 0.76 0.00 74 1024.2
20260507144954 0 327 1.6 6.4 0.00 0.76 0.00 74 1024.2
20260507143953 -1 328 1.6 4.8 0.00 0.76 0.00 77 1024.5
20260507142954 -2 327 3.2 6.4 0.00 0.76 0.00 77 1024.5
20260507141955 -2 327 3.2 6.4 0.00 0.76 0.00 79 1024.4
20260507140953 -3 335 1.6 3.2 0.00 0.76 0.00 81 1024.5
20260507133953 -4 0 0.0 0.0 0.00 0.76 0.00 84 1024.6
20260507132954 -5 0 0.0 0.0 0.00 0.76 0.00 84 1024.7
20260507131953 -4 0 0.0 0.0 0.00 0.76 0.00 85 1024.7
20260507130957 -5 327 1.6 3.2 0.00 0.76 0.00 87 1024.7
20260507125954 -6 327 1.6 4.8 0.00 0.76 0.00 87 1024.8
20260507124954 -6 0 0.0 0.0 0.00 0.76 0.00 87 1024.5
20260507123953 -6 0 0.0 0.0 0.00 0.76 0.00 87 1024.5
20260507121955 -6 0 0.0 0.0 0.00 0.76 0.00 89 1024.5
20260507120954 -7 0 0.0 3.2 0.00 0.76 0.00 89 1024.5
20260507115958 -7 0 0.0 0.0 0.00 0.76 0.00 88 1024.6
20260507114954 -7 0 0.0 0.0 0.00 0.76 0.00 87 1024.5
20260507113953 -7 0 0.0 0.0 0.00 0.76 0.00 87 1024.3
20260507112953 -7 0 0.0 0.0 0.00 0.76 0.00 87 1024.4
20260507111953 -7 0 0.0 0.0 0.00 0.76 0.00 86 1024.2
20260507110954 -6 0 0.0 0.0 0.00 0.76 0.00 85 1024.1
20260507104953 -6 0 0.0 0.0 0.00 0.76 0.00 85 1024.1
20260507103953 -6 0 0.0 0.0 0.00 0.76 0.00 84 1024.1
20260507102955 -6 0 0.0 0.0 0.00 0.76 0.00 84 1024.2
20260507101953 -6 0 0.0 0.0 0.00 0.76 0.00 83 1024.2
20260507100953 -6 0 0.0 0.0 0.00 0.76 0.00 85 1024.2
20260507095953 -6 0 0.0 0.0 0.00 0.76 0.00 84 1024.3
20260507093954 -5 0 0.0 0.0 0.00 0.76 0.00 82 1024.1
20260507092953 -6 0 0.0 0.0 0.00 0.76 0.00 82 1024.2
20260507091954 -5 0 0.0 0.0 0.00 0.76 0.00 82 1024.1
20260507090953 -6 0 0.0 0.0 0.00 0.76 0.00 82 1024.2
20260507085953 -5 0 0.0 0.0 0.00 0.76 0.00 84 1024.3
20260507084954 -6 0 0.0 0.0 0.00 0.76 0.00 85 1024.4
20260507083953 -6 0 0.0 0.0 0.00 0.76 0.00 85 1024.4
20260507082953 -6 0 0.0 0.0 0.00 0.76 0.00 86 1024.3
20260507081953 -6 0 0.0 0.0 0.00 0.76 0.00 85 1024.4
20260507080954 -6 0 0.0 0.0 0.00 0.76 0.00 86 1024.5
20260507075954 -6 0 0.0 0.0 0.00 0.76 0.00 84 1024.4
20260507074953 -5 0 0.0 0.0 0.00 0.76 0.00 82 1024.5
20260507073954 -5 0 0.0 0.0 0.00 0.76 0.00 82 1024.6
20260507072954 -5 0 0.0 0.0 0.00 0.76 0.00 79 1024.6
20260507070953 -5 0 0.0 0.0 0.00 0.76 0.00 81 1024.6
20260507065954 -4 0 0.0 1.6 0.00 0.76 0.00 79 1024.6